LKTB Weather Reports


time (UTC)temp
F
wind
direction
speed
knots
gust
knots
rain 1hr
in
rain 24hr
in
rain mn
in
humidity
%
barometer
mb
20260507020232 57 260 7.0 0.0 0.00 0.00 0.00 71 1008.0
20260507013217 57 250 7.0 0.0 0.00 0.00 0.00 71 1008.0
20260507012206 57 250 7.8 0.0 0.00 0.00 0.00 71
20260507010233 57 260 8.7 0.0 0.00 0.00 0.00 71 1007.0
20260507003216 59 230 8.7 0.0 0.00 0.00 0.00 72 1006.0
20260507002106 59 210 7.8 0.0 0.00 0.00 0.00 67
20260507000227 59 220 8.7 0.0 0.00 0.00 0.00 67 1006.0
20260506233217 59 170 6.1 0.0 0.00 0.00 0.00 67 1006.0
20260506232107 59 170 6.1 0.0 0.00 0.00 0.00 67
20260506230232 59 150 7.0 0.0 0.00 0.00 0.00 67 1006.0
20260506223216 61 160 7.8 0.0 0.00 0.00 0.00 63 1006.0
20260506222338 63 180 7.8 0.0 0.00 0.00 0.00 59
20260506220238 63 160 8.7 0.0 0.00 0.00 0.00 59 1005.0
20260506213224 63 160 7.0 0.0 0.00 0.00 0.00 59 1005.0
20260506212121 64 150 10.4 0.0 0.00 0.00 0.00 55
20260506210226 64 150 7.0 0.0 0.00 0.00 0.00 55 1005.0
20260506203215 64 140 10.4 0.0 0.00 0.00 0.00 55 1005.0
20260506202139 66 150 13.9 0.0 0.00 0.00 0.00 52
20260506200231 66 140 12.2 0.0 0.00 0.00 0.00 52 1004.0
20260506193224 66 140 11.3 0.0 0.00 0.00 0.00 52 1004.0
20260506192333 68 150 12.2 0.0 0.00 0.00 0.00 45
20260506190246 68 140 12.2 0.0 0.00 0.00 0.00 45 1004.0
20260506183238 68 150 12.2 0.0 0.00 0.00 0.00 45 1004.0
20260506182211 70 160 15.6 0.0 0.00 0.00 0.00 43
20260506180240 70 150 13.9 0.0 0.00 0.00 0.00 43 1003.0
20260506173909 70 150 14.8 25.2 0.00 0.00 0.00 43 1003.0
20260506173231 72 150 15.6 0.0 0.00 0.00 0.00 40 1004.0
20260506172136 72 160 17.4 0.0 0.00 0.00 0.00 40
20260506170226 72 150 15.6 0.0 0.00 0.00 0.00 40 1004.0
20260506163231 73 150 15.6 0.0 0.00 0.00 0.00 40 1004.0
20260506162338 75 160 13.9 0.0 0.00 0.00 0.00 36
20260506160240 75 150 15.6 0.0 0.00 0.00 0.00 36 1004.0
20260506153231 75 140 14.8 0.0 0.00 0.00 0.00 36 1005.0
20260506152154 73 150 17.4 0.0 0.00 0.00 0.00 40
20260506150239 73 150 13.9 0.0 0.00 0.00 0.00 38 1005.0
20260506143231 73 140 15.6 0.0 0.00 0.00 0.00 40 1005.0
20260506142122 72 150 15.6 0.0 0.00 0.00 0.00 43
20260506141403 75 150 14.8 0.0 0.00 0.00 0.00 38 1005.0
20260506140232 72 150 14.8 0.0 0.00 0.00 0.00 43 1006.0
20260506133231 73 150 14.8 0.0 0.00 0.00 0.00 43 1006.0
20260506132122 72 120 13.9 0.0 0.00 0.00 0.00 46
20260506130227 73 120 12.2 0.0 0.00 0.00 0.00 43 1006.0
20260506123223 73 140 13.0 0.0 0.00 0.00 0.00 40 1007.0
20260506122121 72 180 10.4 0.0 0.00 0.00 0.00 40
20260506120232 73 180 8.7 0.0 0.00 0.00 0.00 38 1007.0
20260506113223 73 170 8.7 0.0 0.00 0.00 0.00 40 1007.0
20260506112108 72 180 7.8 0.0 0.00 0.00 0.00 40
20260506110225 72 190 10.4 0.0 0.00 0.00 0.00 40 1007.0
20260506103223 72 180 7.0 0.0 0.00 0.00 0.00 43 1007.0
20260506102309 72 200 10.4 0.0 0.00 0.00 0.00 43
20260506100229 72 180 10.4 0.0 0.00 0.00 0.00 43 1008.0
20260506093224 70 170 7.8 0.0 0.00 0.00 0.00 46 1008.0
20260506092050 70 200 7.8 0.0 0.00 0.00 0.00 46
20260506090227 70 200 6.1 0.0 0.00 0.00 0.00 46 1008.0
20260506083223 68 210 7.8 0.0 0.00 0.00 0.00 52 1008.0
20260506082107 66 240 7.8 0.0 0.00 0.00 0.00 55
20260506080234 66 240 7.0 0.0 0.00 0.00 0.00 55 1008.0
20260506073223 66 230 7.0 0.0 0.00 0.00 0.00 55 1008.0
20260506072109 64 220 7.8 0.0 0.00 0.00 0.00 59
20260506070233 64 220 7.8 0.0 0.00 0.00 0.00 59 1008.0
20260506062140 61 200 4.3 0.0 0.00 0.00 0.00 63
20260506060226 61 200 4.3 0.0 0.00 0.00 0.00 67 1008.0
20260506050232 55 110 4.3 0.0 0.00 0.00 0.00 71 1008.0
20260506043217 54 110 5.2 0.0 0.00 0.00 0.00 71 1007.0
20260506042322 54 80 1.7 0.0 0.00 0.00 0.00 71
20260506040227 54 0 1.7 0.0 0.00 0.00 0.00 71 1007.0
20260506033304 52 0 2.6 0.0 0.00 0.00 0.00 76 1007.0
20260506032108 55 90 4.3 0.0 0.00 0.00 0.00 66
20260506030227 55 90 2.6 0.0 0.00 0.00 0.00 66 1006.0
20260506023216 55 0 0.0 0.0 0.00 0.00 0.00 66 1007.0
20260506022108 55 190 1.7 0.0 0.00 0.00 0.00 66